{"data":{"norad_id":56491,"intl_designator":"2023-064AV","name":"STARLINK-5842","alt_names":[],"object_type":"PAYLOAD","status":"ACTIVE","operator":null,"country":"US","launch_date":"2023-05-10","launch_site_code":"AFWTR","launch_vehicle":null,"mission":null,"orbit_class":"UNKNOWN","rcs_meters":null,"size_class":null,"mass_kg":null,"dimensions":null,"purposes":["comms"],"wikipedia_slug":null,"has_3d_model":false,"image_url":null,"decayed_at":null,"tle_current":{"epoch":"2026-05-24T19:17:04.882272Z","epoch_age_seconds":91780,"freshness":"FRESH","line1":"1 56491U 23064AV  26144.80352873  .00000871  00000+0  80816-4 0  9995","line2":"2 56491  69.9991 272.5404 0003071 268.3585  91.7222 14.98334072167639","mean_motion":14.98334072,"eccentricity":0.0003071,"inclination_deg":69.9991,"raan_deg":272.5404,"arg_perigee_deg":268.3585,"mean_anomaly_deg":91.7222,"bstar":8.0816e-5,"rev_number":16763,"period_min":96.106737937145,"perigee_km":569.90889827912,"apogee_km":574.17769901855,"semimajor_km":6950.1802986488,"source":"CELESTRAK","updated_at":"2026-05-25T13:38:18.075539Z"}}}